Location: Newark
(41.6500°N, 71.4833°W)
Time: 11:13:28
(UTC+00:00)

deb Explorer IX - Pass Details

Date: 24 January 2020
Orbit: 549 x 1099 km, 38.8° (Epoch: 25 February)

Event Time Altitude Azimuth Distance (km) Brightness Sun altitude
Rises 08:18:05 0° 279° (W) 3,876 - -42.3°
Reaches altitude 10° 08:21:15 10° 269° (W) 2,876 - -41.7°
Maximum altitude 08:27:10 30° 212° (SSW) 1,700 - -40.6°
Drops below altitude 10° 08:32:33 10° 153° (SSE) 2,594 - -39.6°
Exits shadow 08:33:16 - 150° (SSE) 2,806 ? -39.5°
Sets 08:35:16 0° 143° (SE) 3,441 ? -39.1°
